EW1689 Weather Reports


Display with metric or nautical units.
time (UTC)temp
F
wind
direction
speed
MPH
gust
MPH
rain 1hr
in
rain 24hr
in
rain mn
in
humidity
%
barometer
mb
20260901233036 96 0 2.0 4.0 0.00 0.00 0.00 37 1013.0
20260901232017 95 0 2.0 5.0 0.00 0.00 0.00 37 1012.9
20260901231016 96 0 2.0 6.0 0.00 0.00 0.00 36 1013.2
20260901230016 96 0 2.0 4.0 0.00 0.00 0.00 36 1013.3
20260901225017 96 0 3.0 8.0 0.00 0.00 0.00 36 1013.2
20260901224016 97 0 2.0 5.0 0.00 0.00 0.00 36 1013.4
20260901223016 97 0 1.0 3.0 0.00 0.00 0.00 35 1013.4
20260901222016 96 0 2.0 5.0 0.00 0.00 0.00 37 1013.7
20260901221017 96 0 1.0 3.0 0.00 0.00 0.00 37 1013.7
20260901220036 95 0 1.0 3.0 0.00 0.00 0.00 38 1013.7
20260901215036 95 0 4.0 10.0 0.00 0.00 0.00 39 1014.0
20260901214016 94 0 2.0 5.0 0.00 0.00 0.00 40 1014.0
20260901213016 94 0 2.0 6.0 0.00 0.00 0.00 40 1014.2
20260901212137 94 0 4.0 8.0 0.00 0.00 0.00 39 1014.4
20260901211017 94 0 2.0 6.0 0.00 0.01 0.00 40 1014.5
20260901210016 95 0 2.0 5.0 0.00 0.01 0.00 38 1014.9
20260901205016 94 0 3.0 6.0 0.00 0.01 0.00 40 1014.9
20260901204016 94 0 3.0 6.0 0.00 0.01 0.00 40 1015.0
20260901203056 93 0 1.0 4.0 0.00 0.01 0.00 40 1015.2
20260901202016 93 0 2.0 6.0 0.00 0.01 0.00 41 1015.4
20260901201016 93 0 2.0 6.0 0.00 0.01 0.00 42 1015.5
20260901200016 92 0 1.0 3.0 0.00 0.01 0.00 43 1015.5
20260901195016 91 0 3.0 7.0 0.00 0.01 0.00 43 1015.7
20260901194016 91 0 4.0 7.0 0.00 0.01 0.00 43 1015.9
20260901193016 92 0 2.0 5.0 0.00 0.01 0.00 43 1016.0
20260901192017 93 0 1.0 3.0 0.00 0.01 0.00 43 1016.2
20260901191016 93 0 2.0 7.0 0.00 0.01 0.00 42 1016.4
20260901190016 92 0 1.0 2.0 0.00 0.01 0.00 44 1016.6
20260901185016 91 0 1.0 6.0 0.00 0.01 0.00 43 1016.5
20260901184016 91 0 2.0 5.0 0.00 0.01 0.00 43 1016.6
20260901183016 91 0 1.0 3.0 0.00 0.01 0.00 45 1016.8
20260901182016 90 0 2.0 4.0 0.00 0.01 0.00 45 1017.0
20260901181016 90 0 2.0 5.0 0.00 0.01 0.00 44 1017.0
20260901180015 90 0 3.0 7.0 0.00 0.01 0.00 47 1017.1
20260901175036 90 0 2.0 5.0 0.00 0.01 0.00 46 1017.2
20260901174017 89 0.0 2.0 0.00 0.01 0.00 47 1017.2
20260901173016 88 0 1.0 2.0 0.00 0.01 0.00 50 1017.2
20260901172016 88 0 2.0 5.0 0.00 0.01 0.00 48 1017.2
20260901171016 87 0 2.0 6.0 0.00 0.01 0.00 50 1017.2
20260901170016 86 0 2.0 4.0 0.00 0.01 0.00 50 1017.1
20260901165035 86 0 1.0 3.0 0.00 0.01 0.00 49 1017.2
20260901164015 86 0 1.0 3.0 0.00 0.01 0.00 52 1017.1
20260901163015 86 0 1.0 3.0 0.00 0.01 0.00 51 1017.1
20260901162015 85 0 1.0 2.0 0.00 0.01 0.00 53 1016.9
20260901161016 85 0 2.0 4.0 0.00 0.02 0.00 50 1017.0
20260901160016 85 0.0 2.0 0.00 0.04 0.00 54 1016.9
20260901155016 85 0 2.0 4.0 0.00 0.06 0.00 52 1016.8
20260901154015 84 0 1.0 3.0 0.00 0.07 0.00 55 1016.6
20260901153016 83 0 1.0 3.0 0.00 0.07 0.00 56 1016.6
20260901152516 82 0 1.0 3.0 0.00 0.08 0.00 57 1016.7
20260901151516 82 0.0 1.0 0.00 0.09 0.00 58 1016.7
20260901150518 81 0 1.0 2.0 0.00 0.10 0.00 61 1016.5
20260901145517 81 0.0 1.0 0.00 0.12 0.00 62 1016.7
20260901144517 80 0.0 2.0 0.00 0.16 0.00 65 1016.5
20260901143517 79 0.0 2.0 0.00 0.20 0.00 66 1016.4
20260901142517 78 0.0 0.0 0.00 0.23 0.00 68 1016.5
20260901141537 77 0.0 1.0 0.00 0.23 0.00 68 1016.4
20260901140537 77 0.0 0.0 0.00 0.23 0.00 67 1016.4
20260901135518 77 0.0 0.0 0.00 0.23 0.00 68 1016.4
20260901134517 76 0.0 0.0 0.00 0.23 0.00 71 1016.1
20260901133517 75 0.0 0.0 0.00 0.23 0.00 72 1015.9
20260901132537 74 0.0 0.0 0.00 0.23 0.00 73 1015.8
20260901131517 74 0.0 0.0 0.00 0.23 0.00 73 1015.8
20260901130537 74 0.0 0.0 0.00 0.23 0.00 73 1015.8
20260901130017 74 0.0 0.0 0.00 0.23 0.00 73 1015.8
20260901125017 74 0.0 0.0 0.00 0.23 0.00 73 1015.8
20260901124017 75 0.0 0.0 0.00 0.23 0.00 72 1015.7
20260901123038 75 0.0 0.0 0.00 0.23 0.00 72 1015.6
20260901122017 75 0.0 0.0 0.00 0.23 0.00 72 1015.6
20260901121057 75 0.0 0.0 0.00 0.23 0.00 72 1015.4
20260901120017 74 0.0 0.0 0.00 0.23 0.00 73 1015.3
20260901115017 74 0.0 0.0 0.00 0.23 0.00 73 1015.3
20260901114017 74 0.0 0.0 0.00 0.23 0.00 73 1015.2
20260901113017 74 0.0 0.0 0.00 0.23 0.00 73 1015.3
20260901112017 74 0.0 0.0 0.00 0.23 0.00 74 1015.2
20260901111017 74 0.0 0.0 0.00 0.23 0.00 74 1015.2
20260901110017 74 0.0 0.0 0.00 0.23 0.00 74 1015.1
20260901105017 74 0.0 0.0 0.00 0.23 0.00 75 1015.0
20260901104017 73 0.0 0.0 0.00 0.23 0.00 75 1015.0
20260901103037 73 0.0 0.0 0.00 0.23 0.00 76 1015.1
20260901102017 74 0.0 0.0 0.00 0.23 0.00 77 1015.1
20260901101016 74 0.0 0.0 0.00 0.23 0.00 77 1015.0
20260901100016 74 0.0 0.0 0.00 0.23 0.00 77 1015.1
20260901095037 74 0.0 0.0 0.00 0.23 0.00 76 1015.1
20260901094018 75 0.0 0.0 0.00 0.23 0.00 74 1015.1
20260901093017 75 0.0 0.0 0.00 0.23 0.00 72 1015.1
20260901092017 75 0.0 0.0 0.00 0.23 0.00 70 1015.1
20260901091017 75 0.0 0.0 0.00 0.23 0.00 70 1015.1
20260901090016 75 0.0 0.0 0.00 0.23 0.00 71 1015.1
20260901085017 75 0.0 0.0 0.00 0.23 0.00 69 1014.8
20260901084017 75 0.0 0.0 0.00 0.23 0.00 72 1014.7
20260901083017 75 0.0 0.0 0.00 0.23 0.00 71 1014.8
20260901082017 75 0.0 0.0 0.00 0.23 0.00 71 1015.0
20260901081016 75 0.0 0.0 0.00 0.23 0.00 71 1014.9
20260901080017 75 0.0 0.0 0.00 0.23 0.00 72 1014.8
20260901075037 75 0.0 0.0 0.00 0.23 0.00 72 1014.8
20260901074037 75 0.0 0.0 0.00 0.23 0.00 71 1014.7
20260901073016 75 0.0 0.0 0.00 0.23 0.00 70 1014.7
20260901072017 76 0.0 0.0 0.00 0.23 0.00 69 1014.6
20260901071016 76 0.0 0.0 0.00 0.23 0.00 68 1014.5
20260901070016 76 0.0 0.0 0.00 0.23 0.23 68 1014.5
20260901065015 76 0.0 0.0 0.00 0.23 0.23 68 1014.5
20260901064016 76 0.0 0.0 0.00 0.23 0.23 68 1014.4
20260901063015 76 0.0 0.0 0.00 0.23 0.23 67 1014.3
20260901062036 77 0.0 0.0 0.00 0.23 0.23 67 1014.3
20260901061036 77 0.0 0.0 0.00 0.23 0.23 67 1014.3
20260901060015 77 0.0 0.0 0.00 0.24 0.23 66 1014.2
20260901055016 77 0.0 0.0 0.00 0.24 0.23 66 1014.2
20260901054015 77 0.0 0.0 0.00 0.24 0.23 66 1014.3
20260901053016 77 0.0 0.0 0.00 0.24 0.23 65 1014.2
20260901052015 78 0.0 0.0 0.00 0.24 0.23 64 1014.3
20260901051036 78 0.0 0.0 0.00 0.24 0.23 64 1014.3
20260901050036 78 0.0 0.0 0.00 0.24 0.23 63 1014.3
20260901045015 79 0.0 0.0 0.00 0.24 0.23 62 1014.2
20260901044016 79 0.0 0.0 0.00 0.24 0.23 60 1014.3
20260901043017 79 0.0 0.0 0.00 0.24 0.23 59 1014.3
20260901042017 79 0.0 0.0 0.00 0.24 0.23 59 1014.2
20260901041038 80 0.0 0.0 0.00 0.24 0.23 58 1014.1
20260901040017 80 0 1.0 3.0 0.00 0.24 0.23 58 1014.1
20260901035017 80 0 1.0 2.0 0.00 0.24 0.23 59 1014.0
20260901034037 80 0 1.0 3.0 0.00 0.24 0.23 58 1014.0
20260901033017 80 0.0 1.0 0.00 0.24 0.23 59 1014.0
20260901032017 80 0.0 2.0 0.00 0.24 0.23 58 1013.8
20260901031037 81 0 1.0 2.0 0.00 0.24 0.23 57 1013.5
20260901030017 81 0.0 4.0 0.00 0.24 0.23 58 1013.4
20260901025017 81 0.0 0.0 0.00 0.24 0.23 58 1013.3
20260901024037 81 0.0 0.0 0.00 0.24 0.23 58 1013.0
20260901023037 81 0.0 0.0 0.00 0.24 0.23 57 1013.1
20260901022017 81 0.0 0.0 0.00 0.24 0.23 58 1013.2
20260901021017 82 0.0 0.0 0.00 0.24 0.23 56 1013.1
20260901020017 82 0.0 0.0 0.00 0.24 0.23 56 1013.1
20260901015017 83 0.0 0.0 0.00 0.24 0.23 53 1012.9
20260901014037 83 0.0 0.0 0.00 0.24 0.23 53 1012.9
20260901013017 83 0.0 0.0 0.00 0.24 0.23 53 1013.0
20260901012017 83 0.0 0.0 0.00 0.24 0.23 52 1013.1
20260901011017 84 0.0 0.0 0.00 0.24 0.23 52 1013.1
20260901010017 84 0.0 0.0 0.00 0.24 0.23 53 1012.9
20260901005017 84 0.0 0.0 0.00 0.24 0.23 53 1013.0
20260901004017 84 0.0 0.0 0.00 0.24 0.23 52 1012.9
20260901003018 84 0.0 3.0 0.00 0.24 0.23 51 1013.1
20260901002017 85 0 1.0 2.0 0.00 0.24 0.23 50 1013.1
20260901001017 85 0 1.0 3.0 0.00 0.24 0.23 51 1013.2
20260901000017 85 0.0 2.0 0.00 0.24 0.23 52 1013.4
20260831235117 85 0 1.0 4.0 0.00 0.24 0.23 50 1013.4
20260831234017 85 0.0 1.0 0.00 0.24 0.23 53 1013.6